User: anonymous   Login
Location: Unspecified
(0.0000°N, 0.0000°E)
Time: 01:55:22
(UTC+00:00)
Language:

TBA - TO BE ASSIGNED - Orbit

View from above orbital plane
View from above orbital plane
View from above satellite
View from above satellite

Ground track
Ground track

The orbit is defined by the following mean orbital elements,

1 68952U          26145.58335647 +.00000000 +00000-0 +32633-3 0 00002
2 68952  53.1593 268.7572 0001120  54.8845  70.8594 15.49287574    08
Epoch (UTC): 25 May 2026 14:00:01
Eccentricity: 0.0001120
inclination: 53.1593°
perigee height: 418 km
apogee height: 420 km
right ascension of ascending node: 268.7572°
argument of perigee: 54.8845°
revolutions per day: 15.49287574
mean anomaly at epoch: 70.8594°

The dashed part of the orbit path shows where the satellite is in the earth's shadow,  

DLR